Tornike Janelidze

Recruteur en chef - Dinamo Tbilisi
3 Déc 2028
Dimanche
Processus

Personnalité

Adaptabilité (1) Ambition (19) Controverse (2) Loyauté (5) Pression (12) Professionnalisme (5) Sportivité (16) Tempérament (2)

Profil

Style d'entraînement Démocratique
Diplôme Continental B
Détermination 9
Gestion des joueurs 11
Motivation 11
Discipline 7
Satisfaction professionnelle
100%
Fatigue
0%
Rôle Recruteur en chef
Salaire 49.6K p/s
Contrat 14.03.2029

Performance

Comportement Bon
Efficacité de l'entraînement
38%
Développement des joueurs
20%
Prévention des blessures
55%
Mise en place tactique
20%

Événements récents

A évalué un joueur maintenant
A participé à une réunion de recrutement maintenant
A participé à une réunion de recrutement maintenant
A participé à une réunion de recrutement 7j
A évalué un joueur 7j
A évalué un joueur 7j
A évalué un joueur 7j
A évalué un joueur 7j

Suivi en cours

362
Joueur Club Statut Capacité Confiance Observé Dernière observation Dernier vote
Tobías Leiva Estudiantes Actif 136 / 115 40% 3 02.12.2028 -
Matías Machado Racing Actif 108 / 103 40% 2 02.12.2028 -
Adrián Sánchez Belgrano Actif 108 / 122 40% 4 29.11.2028 -
Misael Tarón Ferro Carril Oeste Actif 117 / 99 40% 1 29.11.2028 -
Pablo Cardona Cortulua Actif 133 / 114 40% 4 27.11.2028 -
Ignacio Perruzzi San Lorenzo Actif 122 / 133 40% 1 27.11.2028 -
Aarón Quiros Vélez Actif 120 / 120 40% 2 25.11.2028 -
Guillermo Enrique Huracán Actif 141 / 113 40% 2 25.11.2028 -
Emanuel Coronel Rosario Central Actif 139 / 122 40% 1 24.11.2028 -
Santiago Longo Belgrano Actif 116 / 140 40% 1 24.11.2028 -
Gonzalo Luján Inter Miami CF Actif 115 / 132 40% 2 23.11.2028 -
Matías Galarza Talleres Actif 133 / 131 40% 1 23.11.2028 -
Nazareno Kihm Ferro Carril Oeste Actif 103 / 102 40% 2 22.11.2028 -
Martín García Atlanta Actif 122 / 111 40% 2 22.11.2028 -
Francisco Gerometta Godoy Cruz Actif 133 / 102 40% 2 20.11.2028 -
Yeison Suárez Deportivo Pereira Actif 115 / 121 40% 2 19.11.2028 -
Santiago Fernández Talleres Actif 138 / 135 40% 3 19.11.2028 -
Paulo Vitor Dinamo Batumi Actif 117 / 111 40% 5 18.11.2028 -
Luis Olivera Defensores Unidos Actif 112 / 126 40% 2 18.11.2028 -
Agustín Sández Newell's Old Boys Actif 144 / 114 40% 2 12.11.2028 -
Julián Palacios Envigado Actif 129 / 124 40% 1 12.11.2028 -
Sasha Marcich Lanús Actif 139 / 111 40% 4 11.11.2028 -
Gonzalo Pérez Lanús Actif 136 / 113 40% 1 11.11.2028 -
Pedro Souto Temperley Actif 120 / 102 40% 2 07.11.2028 -
Damián Adín San Miguel Actif 112 / 126 40% 1 07.11.2028 -
Leandro Allende Colón Actif 124 / 107 40% 3 06.11.2028 -
Lautaro Vargas Unión de Santa Fe Actif 139 / 140 40% 1 06.11.2028 -
Augusto Schott Talleres Actif 109 / 140 40% 2 05.11.2028 -
Braian Aranda Agropecuario Argentino Actif 113 / 103 40% 2 05.11.2028 -
Camilo Alessandria Godoy Cruz Actif 111 / 125 40% 3 04.11.2028 -
Mauricio Guzmán Tristán Suárez Actif 100 / 111 40% 1 04.11.2028 -
Matías Ruiz Díaz Estudiantes Actif 114 / 109 40% 4 02.11.2028 -
Franco Ibarra Rosario Central Actif 148 / 121 40% 1 02.11.2028 -
Alejo Tabares All Boys Actif 115 / 131 40% 3 01.11.2028 -
Lucas Carrizo Newell's Old Boys Actif 137 / 120 40% 1 01.11.2028 -
Alan Olinick Racing Actif 98 / 97 40% 2 31.10.2028 -
Nahuel Tenaglia Banfield Actif 130 / 148 40% 3 30.10.2028 -
Fernando Bersano Madryn Actif 121 / 112 40% 5 29.10.2028 -
Maico Quiroz Güemes Actif 132 / 117 40% 2 27.10.2028 -
Agustín Benítez Defensores Actif 108 / 102 40% 1 26.10.2028 -
Facundo Melillán Güemes Actif 111 / 113 40% 2 25.10.2028 -
Ignacio Vázquez Platense Actif 131 / 112 40% 2 24.10.2028 -
Tomás Porra Barracas Central Actif 133 / 113 40% 2 23.10.2028 -
Riku Yamane Yokohama F. Marinos Actif 138 / 130 40% 2 22.10.2028 -
Santiago González Tigre Actif 145 / 143 40% 1 20.10.2028 -
Ismael Cortez Gimnasia y Esgrima Actif 110 / 125 40% 1 19.10.2028 -
Tomás Ferreyra Defensores Unidos Actif 114 / 127 40% 1 19.10.2028 -
Juan Pintado Gimnasia La Plata Actif 129 / 119 40% 1 15.10.2028 -
Mauro Osores San Martín SJ Actif 99 / 117 40% 2 14.10.2028 -
Lucas Monzón Alvarado Actif 97 / 114 40% 2 13.10.2028 -
Marcos López Gimnasia La Plata Actif 119 / 141 40% 1 11.10.2028 -
Brian Aguilar Tristán Suárez Actif 129 / 112 40% 2 10.10.2028 -
Yeferson Rodallega Envigado Actif 102 / 131 40% 6 09.10.2028 -
Luis Palacios Once Caldas Actif 139 / 117 40% 1 09.10.2028 -
Elías López Aldosivi Actif 114 / 105 40% 1 05.10.2028 -
Santiago Moyano Central Córdoba SdE Actif 106 / 123 40% 1 15.09.2028 -
Igor Jesus Los Angeles Football Club Actif 135 / 133 40% 2 13.09.2028 -
Yuri Casermeiro Central Córdoba SdE Actif 128 / 126 40% 1 13.09.2028 -
Mauro Peinipil Colón Actif 132 / 106 40% 1 11.09.2028 -
Tomás Rojas Atlanta Actif 100 / 105 40% 3 10.09.2028 -
Agustín Pereira Albion Actif 116 / 126 40% 1 10.09.2028 -
Juan Antonini Estudiantes Actif 119 / 101 40% 1 06.09.2028 -
Luis Palacios Once Caldas Perdu 117 / 126 40% 1 21.08.2028 -
Semuel Pizzignacco Monza Actif 120 / 118 40% 2 12.08.2028 -
Filippo Rinaldi Parma Actif 133 / 139 40% 1 11.08.2028 -
Nathan Trott Cardiff City Actif 145 / 133 40% 3 09.08.2028 -
Roberto Ramírez Godoy Cruz Actif 101 / 127 40% 1 09.08.2028 -
George Evans Exeter City Actif 120 / 135 40% 4 08.08.2028 -
Shamal George Doncaster Rovers Actif 120 / 118 40% 5 08.08.2028 -
Luke McGee Tranmere Rovers Actif 96 / 118 40% 3 06.08.2028 -
Ludovico Del Sorbo Sorrento Actif 132 / 133 40% 5 06.08.2028 -
Dylan Moody Cheltenham Town Actif 138 / 129 40% 4 05.08.2028 -
Davide Mastrantonio Latina Actif 110 / 118 40% 2 04.08.2028 -
Amir Saipi Mallorca Actif 143 / 122 40% 5 04.08.2028 -
Leonardo Marson Gubbio Perdu 109 / 121 40% 1 30.07.2028 -
Fran Vieites Walsall Actif 136 / 132 40% 4 29.07.2028 -
Alfie Whiteman Newport County Actif 103 / 119 40% 4 28.07.2028 -
Joe Walsh Queens Park Rangers Actif 125 / 132 40% 3 28.07.2028 -
Balázs Tóth Blackburn Rovers Actif 121 / 146 40% 2 25.07.2028 -
Killian Cahill Leyton Orient Actif 132 / 133 40% 2 25.07.2028 -
Carlos Marín Albacete Actif 145 / 143 40% 2 24.07.2028 -
Filip Marschall Stevenage Actif 143 / 135 40% 1 22.07.2028 -
Riccardo Gagno Vicenza Actif 142 / 126 40% 3 21.07.2028 -
Daniele Sommariva Gillingham Actif 112 / 99 40% 1 21.07.2028 -
Murphy Cooper Plymouth Argyle Actif 121 / 116 40% 1 17.07.2028 -
Filippo Manfrin Arzignano Actif 102 / 113 40% 3 16.07.2028 -
Cesare Galeotti Trapani Actif 103 / 121 40% 4 15.07.2028 -
Esquerdinha Notts County Actif 121 / 141 40% 1 10.07.2028 -
Jack Taylor Doncaster Rovers Actif 118 / 124 40% 1 10.07.2028 -
Vladan Kovačević Norwich City Actif 148 / 122 40% 2 08.07.2028 -
Myles Roberts Cambridge United Actif 121 / 99 40% 2 07.07.2028 -
Will Mannion Charlton Athletic Actif 140 / 110 40% 1 07.07.2028 -
Sam Proctor Salford City Actif 137 / 128 40% 1 04.07.2028 -
Jordan Amissah Burton Albion Actif 100 / 103 40% 2 03.07.2028 -
Jonathan Klinsmann Cesena Actif 127 / 131 40% 1 03.07.2028 -
Stephen McMullan Fleetwood Town Actif 100 / 108 40% 1 30.06.2028 -
Gaëtan Coucke Sampdoria Actif 117 / 137 40% 2 26.06.2028 -
Luke Southwood Bristol Rovers Actif 112 / 117 40% 1 24.06.2028 -
Michele Cerofolini Empoli Refusé 145 / 129 40% 2 22.06.2028 -
Sol Brynn Bradford City Actif 153 / 121 40% 1 20.06.2028 -
Evgeny Latyshonok Nizhniy Novgorod Actif 127 / 126 40% 4 15.06.2028 -
Lukas Jensen Millwall Actif 121 / 120 40% 1 13.06.2028 -
Ante Crnac Bristol Rovers Actif 121 / 127 40% 1 01.06.2028 -
Arthur Gomes Dinamo Moscow Actif 134 / 131 40% 1 01.06.2028 -
Christian Saydee Wigan Athletic Actif 113 / 129 40% 3 29.05.2028 -
Francesco Ruocco Mantova Actif 125 / 123 40% 1 29.05.2028 -
Gennaro Tutino Sampdoria Actif 122 / 139 40% 2 28.05.2028 -
Rocco Vata Watford Actif 125 / 119 40% 1 28.05.2028 -
John Yeboah Venezia Actif 139 / 121 40% 3 27.05.2028 -
Walid Cheddira Avellino Actif 135 / 138 40% 3 26.05.2028 -
Pedro Mendes Modena Actif 119 / 121 40% 4 26.05.2028 -
Manuel De Luca Cremonese Actif 147 / 119 40% 2 25.05.2028 -
Marco Tumminello Benevento Actif 127 / 122 40% 3 23.05.2028 -
Che Adams Torino Actif 158 / 128 40% 1 23.05.2028 -
Mohamadou Kanté Crawley Town Actif 138 / 116 40% 1 23.05.2028 -
Jérémy Le Douaron Palermo Actif 113 / 115 40% 4 16.05.2028 -
M'Bala Nzola Cagliari Actif 148 / 123 40% 2 16.05.2028 -
Stephen Humphrys Bradford City Actif 123 / 116 40% 1 16.05.2028 -
Igor Tyjon Barrow AFC Actif 113 / 118 40% 1 16.05.2028 -
Simone Mazzocchi Cosenza Actif 128 / 117 40% 1 12.05.2028 -
Gabriele Gori Ascoli Actif 123 / 116 40% 2 09.05.2028 -
Luca Moro Padova Actif 138 / 127 40% 4 08.05.2028 -
Giuseppe Panico Foggia Actif 128 / 122 40% 2 08.05.2028 -
Nikolai Rehnen Grimsby Town Actif 110 / 101 40% 1 08.05.2028 -
Sam Smith Wrexham Actif 125 / 116 40% 1 07.05.2028 -
Aaron Collins Milton Keynes Dons Actif 115 / 113 40% 2 06.05.2028 -
Thierry Gale Swindon Town Actif 107 / 134 40% 1 06.05.2028 -
Joe Whitworth Wigan Athletic Actif 133 / 133 40% 2 05.05.2028 -
Miro Arsenal Tula Actif 105 / 126 40% 2 03.05.2028 -
Josh Nichols Oldham Athletic Actif 129 / 123 40% 1 01.05.2028 -
Paddy Lane Reading Actif 103 / 129 40% 1 01.05.2028 -
Reyes Cleary Bromley Actif 130 / 133 40% 2 30.04.2028 -
Caylan Vickers Burton Albion Actif 100 / 122 40% 3 28.04.2028 -
Luca Williams-Barnett Walsall Actif 116 / 114 40% 1 28.04.2028 -
Reuell Walters Luton Town Actif 138 / 123 40% 1 27.04.2028 -
Alessandro Arena Arezzo Actif 119 / 109 40% 1 26.04.2028 -
Tristan Crama Wycombe Wanderers Actif 144 / 143 40% 1 24.04.2028 -
Hidemasa Morita Hull City Actif 140 / 140 40% 2 23.04.2028 -
Liam Cullen Swansea City Actif 119 / 107 40% 3 20.04.2028 -
Kaye Furo Reading Actif 124 / 138 40% 1 20.04.2028 -
Callum Lang Preston Actif 134 / 128 40% 3 19.04.2028 -
Sam Nombe Milton Keynes Dons Actif 109 / 102 40% 1 15.04.2028 -
Gustavo Santos Krasnodar Actif 143 / 122 40% 1 13.04.2028 -
Conor Chaplin Leicester City Actif 124 / 131 40% 1 12.04.2028 -
Josh Stokes Bristol City Actif 106 / 113 40% 1 12.04.2028 -
Alexei Rojas Fedorushchenko Barrow AFC Actif 119 / 113 40% 1 11.04.2028 -
Dale Taylor Blackpool Actif 112 / 108 40% 1 08.04.2028 -
Kyle Wootton Stockport County Actif 117 / 116 40% 1 06.04.2028 -
Alieu Njie Torino Actif 131 / 133 40% 1 05.04.2028 -
Tyreece Campbell Charlton Athletic Actif 140 / 137 40% 1 03.04.2028 -
Demarai Gray Birmingham Actif 135 / 144 40% 1 01.04.2028 -
Brayan Gil Baltika Actif 116 / 121 40% 4 30.03.2028 -
Ryan McAidoo Oldham Athletic Actif 106 / 126 40% 1 30.03.2028 -
Mark Sykes Millwall Actif 130 / 115 40% 1 28.03.2028 -
Nathan Moriah-Welsh Mansfield Town Actif 115 / 109 40% 1 24.03.2028 -
Vanja Vlahović Spezia Actif 111 / 128 40% 2 23.03.2028 -
Ryan Kavuma-McQueen Accrington Stanley Actif 108 / 125 40% 1 22.03.2028 -
Vyacheslav Grulev Nizhniy Novgorod Actif 100 / 102 40% 6 21.03.2028 -
Tom Davies Barnet Actif 123 / 141 40% 1 20.03.2028 -
Lewis Bate Stockport County Actif 144 / 116 40% 1 20.03.2028 -
Charles Vernam Grimsby Town Actif 121 / 116 40% 1 16.03.2028 -
Timur Suleimanov Nizhniy Novgorod Actif 105 / 109 40% 2 15.03.2028 -
Camillo Tavernelli Arezzo Actif 109 / 132 40% 4 12.03.2028 -
Elijah Adebayo Luton Town Actif 108 / 116 40% 1 12.03.2028 -
Charlie Kelman Barnsley Actif 109 / 122 40% 1 10.03.2028 -
Jorge Cabezas Hurtado Watford Actif 111 / 116 40% 1 09.03.2028 -
Edoardo Soleri Bari Actif 122 / 125 40% 1 08.03.2028 -
Mikhail Ignatov Sochi Actif 109 / 107 40% 3 04.03.2028 -
Egas Cacintura Akhmat Grozny Actif 137 / 125 40% 4 04.03.2028 -
Hwang Hee-Chan Wolverhampton Actif 144 / 152 40% 1 04.03.2028 -
Mohau Nkota Al-Ettifaq Actif 133 / 122 40% 1 04.03.2028 -
Dardan Shabanhaxhaj Rubin Actif 138 / 119 40% 4 29.02.2028 -
Ignacio Ramírez Newell's Old Boys Actif 116 / 113 40% 1 29.02.2028 -
Agustín Hausch Defensa y Justicia Actif 133 / 132 40% 1 28.02.2028 -
Denzel Jubitana Neftchi Actif 121 / 130 40% 3 27.02.2028 -
Edwuin Cetré Estudiantes Actif 119 / 119 40% 2 27.02.2028 -
Facundo Farías Estudiantes Actif 132 / 125 40% 2 24.02.2028 -
Jordan Larsson Al-Hilal Actif 115 / 120 40% 4 23.02.2028 -
Ignacio Saavedra Sochi Actif 122 / 130 40% 2 23.02.2028 -
Jefry Zapata Aldosivi Actif 121 / 127 40% 1 23.02.2028 -
Silvère Ganvoula Al-Hilal Actif 116 / 106 40% 3 21.02.2028 -
Nicholas Bonfanti Pisa Actif 137 / 116 40% 1 21.02.2028 -
Kevin Piscopo Juve Stabia Actif 107 / 123 40% 2 19.02.2028 -
Randy Nteka Krasnodar Actif 139 / 132 40% 1 19.02.2028 -
Juan Manuel Gutiérrez Defensa y Justicia Actif 117 / 132 40% 1 17.02.2028 -
Moussa Koné Al-Ra'ed Actif 125 / 104 40% 3 15.02.2028 -
Nodar Lominadze Torpedo Kutaisi Actif 113 / 108 40% 4 14.02.2028 -
Maksim Samorodov Akhmat Grozny Actif 114 / 121 40% 2 14.02.2028 -
François Kamano Sochi Actif 100 / 119 40% 1 14.02.2028 -
Remco Balk Twente Actif 128 / 133 40% 1 05.02.2028 -
Tamerlan Musaev CSKA Moscow Actif 121 / 121 40% 2 04.02.2028 -
Santiago Solari Racing Club Actif 139 / 114 40% 1 03.02.2028 -
Esteban Obregón Montevideo City Torque Actif 115 / 121 40% 1 03.02.2028 -
Santiago Rodríguez Gimnasia y Esgrima Actif 132 / 132 40% 3 01.02.2028 -
Alexander Díaz Deportivo Riestra Actif 124 / 130 40% 1 27.01.2028 -
Leandro Allende Colón Perdu 132 / 120 40% 1 26.01.2028 -
Franco Díaz Temperley Actif 141 / 121 40% 1 26.01.2028 -
Augusto Berrondo Tristán Suárez Actif 102 / 124 40% 2 25.01.2028 -
Matías Rosales Sarmiento Actif 103 / 114 40% 1 25.01.2028 -
Renaldo Cephas Gabala Actif 117 / 117 40% 2 21.01.2028 -
Gustavo Del Prete San Lorenzo Actif 113 / 119 40% 1 21.01.2028 -
Marcelo Torres Gimnasia La Plata Actif 127 / 119 40% 2 18.01.2028 -
Gastón Moreyra Almirante Brown Actif 112 / 117 40% 1 17.01.2028 -
Rodrigo Bogarín Barracas Central Actif 116 / 122 40% 1 16.01.2028 -
Bruno Leyes Godoy Cruz Actif 136 / 120 40% 2 12.01.2028 -
Nicola Rauti Vicenza Actif 107 / 114 40% 1 12.01.2028 -
Santiago Martínez Godoy Cruz Actif 116 / 122 40% 2 11.01.2028 -
Jonás Acevedo Instituto Actif 113 / 119 40% 1 07.01.2028 -
Elías Torres Racing Club Actif 120 / 126 40% 1 07.01.2028 -
Antony Alonso Deportivo Riestra Actif 123 / 113 40% 1 02.01.2028 -
Daniel Eni Chikhura Actif 84 / 94 51% 1 01.01.2028 -
Claudio Bravo Argentinos Juniors Actif 130 / 118 40% 1 01.01.2028 -
Santiago Moyano Central Córdoba SdE Perdu 134 / 133 40% 1 31.12.2027 -
Blas Armoa Gimnasia y Esgrima Actif 104 / 113 40% 1 30.12.2027 -
Francisco Salerno Defensores Unidos Actif 97 / 121 40% 1 29.12.2027 -
Gonzalo Gamarra Defensores Actif 107 / 107 40% 1 25.12.2027 -
Matej Šimić Torpedo Kutaisi Actif 113 / 109 40% 3 22.12.2027 -
Mathías de Ritis San Lorenzo Actif 122 / 134 40% 1 22.12.2027 -
Gabriel Díaz Patronato Actif 97 / 112 40% 1 20.12.2027 -
Jan Đapo Dila Actif 106 / 98 40% 3 19.12.2027 -
Derik Lacerda Kawasaki Frontale Actif 139 / 125 40% 1 18.12.2027 -
Leonel Pollacchi San Telmo Actif 119 / 103 40% 1 15.12.2027 -
Nikoloz Mali Dila Actif 113 / 103 40% 5 11.12.2027 -
Franco Hanashiro Colegiales Actif 93 / 107 40% 4 02.12.2027 -
Mateo Stamatov Torpedo Kutaisi Actif 97 / 113 40% 2 24.11.2027 -
Justin Haak LA Galaxy Actif 114 / 108 40% 3 23.11.2027 -
Luciano Recalde Quilmes Actif 101 / 123 40% 1 23.11.2027 -
Beka Dartsmelia Saburtalo Actif 111 / 105 40% 1 22.11.2027 -
Eric Barrios Samtredia Actif 100 / 90 40% 1 19.11.2027 -
Murat Celik Tskhinvali Actif 116 / 110 40% 1 06.11.2027 -
Ramaric Etou Dila Actif 102 / 94 40% 1 28.10.2027 -
Lautaro Núñez Alvarado Actif 104 / 101 40% 1 26.10.2027 -
Bence Gergényi Lokomotivi Actif 108 / 102 40% 1 17.10.2027 -
Victor Hernandez Santa Fe Actif 105 / 133 40% 3 11.09.2027 -
Joel Medina Independiente Actif 96 / 111 40% 1 11.09.2027 -
Santiago Cuellar Central Norte Actif 99 / 97 40% 1 05.09.2027 -
Julián Bragado Morón Actif 101 / 98 40% 1 05.09.2027 -
Piero Cari Alianza Lima Actif 112 / 98 40% 1 03.09.2027 -
Hassan Beja AFC Leopards Actif 92 / 84 40% 3 02.09.2027 -
Ramiro Jara Racing Actif 70 / 100 40% 1 02.09.2027 -
Dato Chakvetadze Zugdidi Actif 77 / 86 40% 1 29.08.2027 -
Jonathan Farías Torpedo Kutaisi Actif 95 / 111 40% 5 24.08.2027 Observer
Nicolás Ferreira Artigas Actif 96 / 93 40% 1 15.08.2027 -
Enrique Céspedes Chikhura Actif 77 / 73 40% 1 12.08.2027 -
Anthony da Costa Artigas Actif 70 / 79 40% 1 12.08.2027 -
Juan David Rueda Alianza Petrolera Actif 113 / 100 40% 1 09.08.2027 -
Pablo García Gijón Actif 95 / 126 40% 10 08.08.2027 -
Johan Campaña Patriotas Actif 126 / 125 40% 1 06.08.2027 -
Abdulateef Yusuff FC Diarra Actif 69 / 89 40% 1 05.08.2027 -
Joe Snowdon Swindon Town Actif 109 / 115 40% 1 25.07.2027 -
Felipe Pires Torpedo Kutaisi Actif 109 / 114 40% 2 24.07.2027 -
Miguel Gutierrez Veracruz Actif 104 / 123 40% 1 14.07.2027 -
Radhi Al-Otaibi Al-Ettifaq Actif 98 / 113 40% 1 10.07.2027 -
David Karaev KAMAZ Actif 101 / 112 40% 2 08.07.2027 -
Eldar Ćivić Baltika Actif 104 / 111 40% 3 08.07.2027 -
Alexandr Yushin Torpedo Moscow Actif 114 / 95 40% 2 27.06.2027 -
Niccolò Zanellato Casarano Actif 117 / 90 40% 1 27.06.2027 -
Eduardo Fernandes Benfica Actif 120 / 105 40% 1 25.06.2027 -
Kirill Danilin Ural Actif 110 / 100 40% 3 20.06.2027 -
Aboubacar Doumbia Al-Orobah Actif 95 / 106 40% 1 18.06.2027 -
Jason Al-Fayha Actif 110 / 115 40% 1 16.06.2027 -
André Miranda Porto Actif 95 / 104 40% 1 16.06.2027 -
Đorđe Pantelić Spartak Kostroma Actif 125 / 99 40% 1 14.06.2027 -
Charlie Savage Reading Actif 108 / 116 40% 3 30.05.2027 -
Ahmed Al-Nakhli Al-Hazem Actif 100 / 125 40% 1 30.05.2027 -
Riley Owen Stevenage Actif 99 / 93 40% 2 29.05.2027 -
Luis Haquín Al-Ta'ee Actif 103 / 114 40% 1 29.05.2027 -
Artem Simonyan Rotor Actif 86 / 114 40% 2 25.05.2027 -
Iker Pozo Rodina Actif 133 / 104 40% 6 18.05.2027 -
Jack Hendry Al-Ettifaq Actif 111 / 108 40% 1 14.05.2027 -
Ekain Orobengoa Real Sociedad Actif 93 / 100 40% 1 14.05.2027 -
Daniil Penchikov Arsenal Tula Actif 89 / 92 40% 2 10.05.2027 -
Kirill Malyarov Shinnik Actif 85 / 89 40% 3 08.05.2027 -
Nikita Kakkoev Nizhniy Novgorod Actif 97 / 122 40% 4 03.05.2027 -
Ruslan Apekov Torpedo Moscow Actif 86 / 90 40% 4 01.05.2027 -
Kamran Aliev SKA Khabarovsk Actif 86 / 102 40% 2 01.05.2027 -
Marat Bokoev Akron Actif 113 / 105 40% 1 29.04.2027 -
Amar Rahmanović Krylya Sovetov Actif 112 / 102 40% 1 25.04.2027 -
Stanislav Magkeev Fakel Actif 102 / 94 40% 1 21.04.2027 -
Samuel Justo Sporting CP Actif 123 / 108 40% 3 17.04.2027 -
Ramazan Gadjimuradov Chelyabinsk Actif 115 / 90 40% 1 16.04.2027 -
Temirkan Sundukov Dinamo Makhachkala Actif 128 / 96 40% 2 14.04.2027 -
Pavel Maslov Chaika Actif 124 / 116 40% 4 13.04.2027 -
Vladis Emmersón Yenisey Actif 98 / 113 40% 1 13.04.2027 -
Maxime Sivis Orenburg Actif 101 / 115 40% 3 10.04.2027 -
Yassine Benzia Al-Qadisiyah Actif 136 / 119 40% 1 09.04.2027 -
Diogo Monteiro Tondela Actif 105 / 107 40% 1 06.04.2027 -
Ilja Berkovskiy Torpedo Moscow Actif 115 / 116 40% 1 01.04.2027 -
Ítalo Ural Actif 127 / 114 40% 2 30.03.2027 -
Fahd Moufi Baltika Actif 104 / 119 40% 1 26.03.2027 -
Hugo Moura Al-Fayha Actif 132 / 137 40% 1 26.03.2027 -
Artem Meschaninov Rodina Actif 115 / 103 40% 1 25.03.2027 -
Gonçalo Oliveira Benfica Actif 105 / 115 40% 1 24.03.2027 -
Soslan Takulov Arsenal Tula Actif 105 / 107 40% 3 22.03.2027 -
Pedro Rebocho Al-Khaleej Actif 106 / 103 40% 1 22.03.2027 -
Darko Todorović Fakel Actif 120 / 98 40% 3 20.03.2027 -
Vladislav Kamilov Ufa Actif 89 / 105 40% 1 19.03.2027 -
Alan Tsaraev Arsenal Tula Actif 92 / 90 40% 1 16.03.2027 -
Tin Jedvaj Al-Shabab Actif 117 / 126 40% 1 06.03.2027 -
Yegor Danilkin Rotor Actif 86 / 104 40% 1 05.03.2027 -
Vasily Cherov Ufa Actif 101 / 107 40% 1 05.03.2027 -
Saminu Abdullahi KAMAZ Actif 86 / 93 40% 1 04.03.2027 -
Stefan Kovač Baltika Actif 125 / 106 40% 1 03.03.2027 -
Álvaro Medrán Al-Ettifaq Actif 114 / 119 40% 1 27.02.2027 -
Musab Al-Juwayr Al-Qadisiyah Actif 132 / 134 40% 1 25.02.2027 -
Jaime Seoane Al-Faisaly Actif 134 / 121 40% 1 25.02.2027 -
Martin Kramarič Krylya Sovetov Actif 125 / 124 40% 1 14.02.2027 -
Veldin Hodža Rubin Actif 115 / 137 40% 1 13.02.2027 -
Konstantin Kuchaev Rostov Actif 102 / 130 40% 1 11.02.2027 -
Victor Melekhin Rostov Actif 133 / 129 40% 1 04.02.2027 -
Fernando Costanza Krylya Sovetov Actif 138 / 127 40% 1 03.02.2027 -
Ilja Vakhania Krasnodar Actif 132 / 123 40% 2 01.02.2027 -
Chinedu Geoffrey Krylya Sovetov Actif 125 / 105 40% 2 25.01.2027 -
Mario Ćurić Torpedo Moscow Actif 115 / 120 40% 1 18.01.2027 -
Matheus Silva Qarabag Actif 114 / 112 40% 1 01.01.2027 -
Tenton Yenne Baltika Actif 97 / 119 40% 3 31.12.2026 -
Matvey Ivanov Zenit Actif 74 / 59 40% 1 30.12.2026 -
Denis Makarov Krylya Sovetov Actif 118 / 127 40% 1 28.12.2026 -
Ruslan Bezrukov Rubin Actif 101 / 99 40% 1 28.12.2026 -
Lander Astiazarán Real Sociedad Actif 100 / 116 40% 1 28.12.2026 -
Tiago Almeida Sumgayit Actif 106 / 109 40% 1 26.12.2026 -
Mohamed Konaté Akhmat Grozny Actif 121 / 119 40% 4 22.12.2026 -
Rüstəm Əhmədzadə Sumgayit Actif 119 / 110 40% 2 14.12.2026 -
Thomas Carrique Andorra Actif 118 / 124 40% 1 14.12.2026 -
Luiz Araújo Flamengo Actif 136 / 147 40% 1 14.12.2026 -
Giorgi Papunashvili Zira Actif 122 / 100 40% 1 11.12.2026 -
Vladimir Khubulov Dinamo Makhachkala Actif 98 / 113 40% 1 07.12.2026 -
Franck Boli Al Ahly Actif 120 / 113 40% 3 23.11.2026 -
Rhys Walters Port Vale Actif 91 / 96 40% 1 23.11.2026 -
Kofi Duffour Cherepovets Actif 89 / 74 40% 1 22.11.2026 -
Samuel Silalahi Stromsgodset Actif 104 / 96 40% 1 20.11.2026 -
Maximiliano Gómez Nacional Actif 129 / 136 40% 1 15.11.2026 -
Davit Volkovi Zira Actif 110 / 106 40% 5 05.11.2026 -
Georgy Melkadze Akhmat Grozny Actif 128 / 117 40% 1 05.11.2026 -
Alexandr Saplinov Volga Actif 119 / 89 40% 1 03.11.2026 -
Shahriyar Abdullayev Ravan Actif 100 / 110 40% 1 03.11.2026 -
Lechi Sadulaev Akhmat Grozny Actif 124 / 127 40% 2 30.10.2026 -
Ismahil Akinade Gabala Actif 107 / 90 40% 1 27.10.2026 -
Marko Janković Qarabag Actif 130 / 128 40% 1 27.10.2026 -
Vladislav Sarveli Nizhniy Novgorod Actif 119 / 101 40% 1 25.10.2026 -
Albin Andersson Falkenberg Actif 118 / 96 40% 2 21.10.2026 -
Ousseynou Seck Randers Actif 89 / 120 40% 1 20.10.2026 -
Gaspar Duarte Rosario Central Actif 106 / 106 40% 3 18.10.2026 -
Macaulay Langstaff Millwall Actif 132 / 128 40% 3 07.10.2026 -
Anthony Olusanya Kalmar FF Actif 115 / 85 40% 1 04.10.2026 -
Job Ochieng Real Sociedad Actif 118 / 109 40% 1 03.10.2026 -
Kyle Joseph Middlesbrough Actif 119 / 108 40% 2 29.09.2026 -
Ezequiel Ávila Partizan Actif 126 / 141 40% 1 27.09.2026 -
Magnus Lankhof Dahlby Stabaek Actif 118 / 101 40% 2 26.09.2026 -
David Kalokoh Ajax Actif 111 / 129 40% 1 26.09.2026 -
Uroš Đuranović Sliema Wanderers Actif 108 / 116 40% 2 21.09.2026 -
Genaro Rossi San Martín SJ Actif 95 / 94 40% 3 15.09.2026 -
Matheus Aiás Noah Actif 106 / 123 40% 1 13.09.2026 -
Renat Garayev AZAL Actif 115 / 104 40% 1 03.09.2026 -
Marcus Mehnert Stromsgodset Actif 120 / 102 40% 1 02.09.2026 -
Deandre Kerr Toronto FC Actif 111 / 102 40% 1 02.09.2026 -
Yeangel Montero Naxxar Lions Actif 85 / 100 40% 1 31.08.2026 -
Joe Johnson Luton Town Actif 109 / 118 40% 1 19.08.2026 -
Santiago Medina Huracán Actif 98 / 99 40% 1 19.08.2026 -
Ibrahim Alhassan Saburtalo Actif 98 / 111 48% 1 17.08.2026 -
Hugo Cuypers Monterrey Actif 109 / 110 40% 1 01.08.2026 -
Diego Rossi Monterrey Actif 118 / 149 40% 1 01.08.2026 -